Indianapolis, IN

9:55 PM EST on November 21, 2019 (GMT -0500)
Indianapolis International

Weather History for KIND - October, 2019

Change the Weather History Date:

Tuesday, October 22, 2019

  Actual Average Record
Temperature  
Mean Temperature 52 °F 53 °F  
Max Temperature 57 °F 63 °F 85 °F (1947)
Min Temperature 45 °F 43 °F 23 °F (1976)
Degree Days  
Heating Degree Days 14 12  
Month to date heating degree days 167 203  
Since 1 July heating degree days 167 278  
Cooling Degree Days 0 0  
Month to date cooling degree days 37 13  
Year to date cooling degree days 1344 1062  
Growing Degree Days 2 (Base 50)    
Moisture  
Dew Point 40 °F    
Average Humidity 67    
Maximum Humidity 86    
Minimum Humidity 51    
Precipitation  
Precipitation 0.00 in 0.10 in 1.84 in (1951)
Month to date precipitation 1.62 2.24  
Year to date precipitation 38.64 34.69  
Snow  
Snow 0.00 in 0.00 in 0.50 in (1925)
Month to date snowfall 0.0 0.2  
Since 1 July snowfall 0.0 0.2  
Since 1 September snowfall 0.0 0.2  
Snow Depth 0.00 in    
Sea Level Pressure  
Sea Level Pressure 29.79 in    
Wind  
Wind Speed 12 mph ()    
Max Wind Speed 28 mph    
Max Gust Speed 36 mph    
Visibility 10.0 miles    
Events      
T = Trace of Precipitation, MM = Missing Value Source: Averaged Metar Reports

Daily Weather History Graph

Daily Weather History Graph

Search for Another Location

Airport or City:

Astronomy

Oct. 22, 2019 Rise Set
Actual Time 8:02 AM EDT 6:56 PM EDT
Civil Twilight 7:35 AM EDT 7:23 PM EDT
Nautical Twilight 7:03 AM EDT 7:55 PM EDT
Astronomical Twilight 6:32 AM EDT 8:26 PM EDT
Moon 1:12 AM EDT 4:03 PM EDT
Length of Visible Light 11h 48m
Length of Day
10h 53m
Last Quarter, 37% of the Moon is Illuminated
Oct 22
Last Quarter
Oct 27
New
Nov 4
First Quarter
Nov 12
Full
Nov 19
Last Quarter

Hourly Weather History & Observations

Time (EDT) Temp. Dew Point Humidity Pressure Visibility Wind Dir Wind Speed Gust Speed Precip Events Conditions
12:54 AM 51.1 °F 46.0 °F 83% 29.75 in 10.0 mi SSW 6.9 mph - 0.00 in   Scattered Clouds
1:54 AM 51.1 °F 45.0 °F 80% 29.74 in 10.0 mi SSW 9.2 mph - N/A   Partly Cloudy
2:54 AM 48.9 °F 45.0 °F 86% 29.72 in 10.0 mi SSW 9.2 mph - N/A   Clear
3:54 AM 50.0 °F 44.1 °F 80% 29.71 in 10.0 mi SSW 12.7 mph - N/A   Clear
4:54 AM 50.0 °F 43.0 °F 77% 29.70 in 10.0 mi SSW 15.0 mph - N/A   Clear
5:54 AM 48.9 °F 43.0 °F 80% 29.71 in 10.0 mi SSW 12.7 mph - N/A   Clear
6:54 AM 48.0 °F 42.1 °F 80% 29.72 in 10.0 mi SW 11.5 mph - N/A   Clear
7:54 AM 48.0 °F 41.0 °F 77% 29.74 in 10.0 mi SW 13.8 mph - N/A   Partly Cloudy
8:54 AM 48.9 °F 39.9 °F 71% 29.76 in 10.0 mi SW 16.1 mph - N/A   Partly Cloudy
9:54 AM 51.1 °F 41.0 °F 68% 29.77 in 10.0 mi SW 16.1 mph 28.8 mph N/A   Partly Cloudy
10:54 AM 52.0 °F 39.0 °F 61% 29.78 in 10.0 mi SW 20.7 mph 33.4 mph N/A   Mostly Cloudy
11:54 AM 55.0 °F 39.0 °F 55% 29.78 in 10.0 mi WSW 23.0 mph 33.4 mph N/A   Mostly Cloudy
12:54 PM 54.0 °F 39.0 °F 57% 29.80 in 10.0 mi SW 24.2 mph 32.2 mph N/A   Mostly Cloudy
1:54 PM 55.0 °F 39.0 °F 55% 29.79 in 10.0 mi WSW 23.0 mph 29.9 mph N/A   Overcast
2:54 PM 55.0 °F 39.0 °F 55% 29.79 in 10.0 mi WSW 24.2 mph 35.7 mph N/A   Mostly Cloudy
3:54 PM 57.0 °F 39.0 °F 51% 29.80 in 10.0 mi WSW 20.7 mph 29.9 mph N/A   Mostly Cloudy
4:54 PM 57.0 °F 39.0 °F 51% 29.82 in 10.0 mi WSW 21.9 mph 28.8 mph N/A   Mostly Cloudy
5:54 PM 55.0 °F 37.0 °F 51% 29.83 in 10.0 mi WSW 18.4 mph 29.9 mph N/A   Scattered Clouds
6:54 PM 53.1 °F 37.0 °F 55% 29.85 in 10.0 mi WSW 11.5 mph - N/A   Partly Cloudy
7:54 PM 51.1 °F 37.9 °F 61% 29.87 in 10.0 mi SW 10.4 mph - N/A   Partly Cloudy
8:54 PM 48.9 °F 37.9 °F 66% 29.89 in 10.0 mi SW 10.4 mph - N/A   Partly Cloudy
9:54 PM 48.0 °F 37.9 °F 68% 29.90 in 10.0 mi WSW 11.5 mph - N/A   Partly Cloudy
10:54 PM 46.9 °F 37.9 °F 71% 29.92 in 10.0 mi WSW 12.7 mph - N/A   Partly Cloudy
11:54 PM 46.9 °F 37.0 °F 68% 29.93 in 10.0 mi West 12.7 mph - N/A   Partly Cloudy